Time,TemperatureF,DewpointF,PressureIn,WindDirection,WindDirectionDegrees,WindSpeedMPH,WindSpeedGustMPH,Humidity,HourlyPrecipIn,Conditions,Clouds,dailyrainin,SoftwareType,DateUTC
2013-06-22 00:00:00,80.8,72.1,30.08,ESE,120,1.0,1.0,75,0.00,,,0.00,Wunderground v.1.15,2013-06-22 04:00:00,
2013-06-22 00:01:00,80.8,72.1,30.08,ESE,120,1.0,1.0,75,0.00,,,0.00,Wunderground v.1.15,2013-06-22 04:01:00,
2013-06-22 00:03:00,80.8,72.1,30.08,ENE,72,1.0,1.0,75,0.00,,,0.00,Wunderground v.1.15,2013-06-22 04:03:00,
2013-06-22 00:04:00,80.8,72.5,30.08,SE,124,1.0,1.0,76,0.00,,,0.00,Wunderground v.1.15,2013-06-22 04:04:00,
2013-06-22 00:06:00,80.7,72.4,30.08,ENE,77,1.0,1.0,76,0.00,,,0.00,Wunderground v.1.15,2013-06-22 04:06:00,
2013-06-22 00:07:00,80.7,72.4,30.08,ENE,66,0.0,2.0,76,0.00,,,0.00,Wunderground v.1.15,2013-06-22 04:07:00,
2013-06-22 00:09:00,80.8,72.5,30.08,East,94,1.0,2.0,76,0.00,,,0.00,Wunderground v.1.15,2013-06-22 04:09:00,
2013-06-22 00:12:00,80.7,72.4,30.08,East,92,1.0,1.0,76,0.00,,,0.00,Wunderground v.1.15,2013-06-22 04:12:00,
2013-06-22 00:16:00,80.7,72.8,30.08,East,86,1.0,1.0,77,0.00,,,0.00,Wunderground v.1.15,2013-06-22 04:16:00,
2013-06-22 00:17:00,80.7,72.8,30.08,East,85,1.0,1.0,77,0.00,,,0.00,Wunderground v.1.15,2013-06-22 04:17:00,
2013-06-22 00:19:00,80.7,72.8,30.08,East,101,1.0,1.0,77,0.00,,,0.00,Wunderground v.1.15,2013-06-22 04:19:00,
2013-06-22 00:20:00,80.7,72.8,30.08,East,96,1.0,1.0,77,0.00,,,0.00,Wunderground v.1.15,2013-06-22 04:20:00,
2013-06-22 00:24:00,80.6,72.7,30.08,East,79,1.0,1.0,77,0.00,,,0.00,Wunderground v.1.15,2013-06-22 04:24:00,
2013-06-22 00:26:00,80.5,73.0,30.08,ENE,75,1.0,1.0,78,0.00,,,0.00,Wunderground v.1.15,2013-06-22 04:26:00,
2013-06-22 00:27:00,80.5,73.0,30.08,ENE,75,1.0,1.0,78,0.00,,,0.00,Wunderground v.1.15,2013-06-22 04:27:00,
2013-06-22 00:33:00,80.5,73.0,30.08,East,85,0.0,4.0,78,0.00,,,0.00,Wunderground v.1.15,2013-06-22 04:33:00,
2013-06-22 00:34:00,80.5,73.0,30.07,East,85,0.0,4.0,78,0.00,,,0.00,Wunderground v.1.15,2013-06-22 04:34:00,
2013-06-22 00:35:00,80.5,73.0,30.08,ENE,73,0.0,4.0,78,0.00,,,0.00,Wunderground v.1.15,2013-06-22 04:35:00,
2013-06-22 00:36:00,80.5,73.0,30.07,ENE,61,0.0,4.0,78,0.00,,,0.00,Wunderground v.1.15,2013-06-22 04:36:00,
2013-06-22 00:38:00,80.5,73.0,30.08,East,84,0.0,4.0,78,0.00,,,0.00,Wunderground v.1.15,2013-06-22 04:38:00,
2013-06-22 00:40:00,80.5,73.4,30.08,East,84,0.0,4.0,79,0.00,,,0.00,Wunderground v.1.15,2013-06-22 04:40:00,
2013-06-22 00:44:00,80.4,73.3,30.07,East,83,0.0,4.0,79,0.00,,,0.00,Wunderground v.1.15,2013-06-22 04:44:00,
2013-06-22 00:45:00,80.3,73.2,30.07,East,83,0.0,4.0,79,0.00,,,0.00,Wunderground v.1.15,2013-06-22 04:45:00,
2013-06-22 00:47:00,80.3,73.2,30.07,East,83,0.0,4.0,79,0.00,,,0.00,Wunderground v.1.15,2013-06-22 04:47:00,
2013-06-22 00:50:00,80.2,73.1,30.07,East,84,0.0,4.0,79,0.00,,,0.00,Wunderground v.1.15,2013-06-22 04:50:00,
2013-06-22 00:53:00,80.3,73.2,30.07,ENE,60,0.0,4.0,79,0.00,,,0.00,Wunderground v.1.15,2013-06-22 04:53:00,
2013-06-22 00:54:00,80.3,73.2,30.07,ENE,77,0.0,4.0,79,0.00,,,0.00,Wunderground v.1.15,2013-06-22 04:54:00,
2013-06-22 00:57:00,80.3,73.6,30.07,ENE,77,1.0,4.0,80,0.00,,,0.00,Wunderground v.1.15,2013-06-22 04:57:00,
2013-06-22 01:01:00,80.3,73.6,30.07,SE,131,1.0,1.0,80,0.00,,,0.00,Wunderground v.1.15,2013-06-22 05:01:00,
2013-06-22 01:03:00,80.2,73.5,30.07,SE,124,1.0,1.0,80,0.00,,,0.00,Wunderground v.1.15,2013-06-22 05:03:00,
2013-06-22 01:06:00,80.2,73.5,30.07,East,86,1.0,2.0,80,0.00,,,0.00,Wunderground v.1.15,2013-06-22 05:06:00,
2013-06-22 01:07:00,80.2,73.5,30.07,ENE,73,1.0,2.0,80,0.00,,,0.00,Wunderground v.1.15,2013-06-22 05:07:00,
2013-06-22 01:09:00,80.3,73.6,30.07,East,90,1.0,2.0,80,0.00,,,0.00,Wunderground v.1.15,2013-06-22 05:09:00,
2013-06-22 01:10:00,80.3,73.6,30.07,ESE,111,1.0,1.0,80,0.00,,,0.00,Wunderground v.1.15,2013-06-22 05:10:00,
2013-06-22 01:12:00,80.3,73.6,30.06,ENE,68,1.0,3.0,80,0.00,,,0.00,Wunderground v.1.15,2013-06-22 05:12:00,
2013-06-22 01:14:00,80.4,73.7,30.06,East,98,1.0,3.0,80,0.00,,,0.00,Wunderground v.1.15,2013-06-22 05:14:00,
2013-06-22 01:16:00,80.4,73.7,30.06,ENE,72,1.0,3.0,80,0.00,,,0.00,Wunderground v.1.15,2013-06-22 05:16:00,
2013-06-22 01:17:00,80.4,73.7,30.06,East,97,1.0,3.0,80,0.00,,,0.00,Wunderground v.1.15,2013-06-22 05:17:00,
2013-06-22 01:20:00,80.3,73.2,30.06,East,96,1.0,1.0,79,0.00,,,0.00,Wunderground v.1.15,2013-06-22 05:20:00,
2013-06-22 01:22:00,80.4,73.3,30.06,SE,139,1.0,2.0,79,0.00,,,0.00,Wunderground v.1.15,2013-06-22 05:22:00,
2013-06-22 01:24:00,80.5,73.4,30.06,ESE,112,1.0,2.0,79,0.00,,,0.00,Wunderground v.1.15,2013-06-22 05:24:00,
2013-06-22 01:26:00,80.5,73.4,30.06,ESE,109,1.0,2.0,79,0.00,,,0.00,Wunderground v.1.15,2013-06-22 05:26:00,
2013-06-22 01:30:00,80.5,73.4,30.06,NE,51,1.0,2.0,79,0.00,,,0.00,Wunderground v.1.15,2013-06-22 05:30:00,
2013-06-22 01:31:00,80.5,73.4,30.06,ESE,122,1.0,4.0,79,0.00,,,0.00,Wunderground v.1.15,2013-06-22 05:31:00,
2013-06-22 01:32:00,80.5,73.4,30.06,East,84,1.0,4.0,79,0.00,,,0.00,Wunderground v.1.15,2013-06-22 05:32:00,
2013-06-22 01:34:00,80.6,73.5,30.06,NE,50,1.0,4.0,79,0.00,,,0.00,Wunderground v.1.15,2013-06-22 05:34:00,
2013-06-22 01:37:00,80.6,73.5,30.06,East,87,1.0,4.0,79,0.00,,,0.00,Wunderground v.1.15,2013-06-22 05:37:00,
2013-06-22 01:38:00,80.6,73.5,30.05,ENE,70,1.0,4.0,79,0.00,,,0.00,Wunderground v.1.15,2013-06-22 05:38:00,
2013-06-22 01:40:00,80.5,73.4,30.05,ESE,118,1.0,4.0,79,0.00,,,0.00,Wunderground v.1.15,2013-06-22 05:40:00,
2013-06-22 01:41:00,80.6,73.5,30.05,ESE,114,1.0,4.0,79,0.00,,,0.00,Wunderground v.1.15,2013-06-22 05:41:00,
2013-06-22 01:45:00,80.5,73.4,30.05,ESE,103,1.0,4.0,79,0.00,,,0.00,Wunderground v.1.15,2013-06-22 05:45:00,
2013-06-22 01:46:00,80.5,73.4,30.05,East,101,2.0,4.0,79,0.00,,,0.00,Wunderground v.1.15,2013-06-22 05:46:00,
2013-06-22 01:47:00,80.5,73.4,30.05,East,83,1.0,4.0,79,0.00,,,0.00,Wunderground v.1.15,2013-06-22 05:47:00,
2013-06-22 01:48:00,80.5,73.4,30.05,ESE,119,1.0,4.0,79,0.00,,,0.00,Wunderground v.1.15,2013-06-22 05:48:00,
2013-06-22 01:50:00,80.5,73.4,30.05,ENE,68,1.0,4.0,79,0.00,,,0.00,Wunderground v.1.15,2013-06-22 05:50:00,
2013-06-22 01:51:00,80.5,73.4,30.05,East,83,1.0,4.0,79,0.00,,,0.00,Wunderground v.1.15,2013-06-22 05:51:00,
2013-06-22 01:54:00,80.5,73.4,30.05,East,91,1.0,4.0,79,0.00,,,0.00,Wunderground v.1.15,2013-06-22 05:54:00,
2013-06-22 01:55:00,80.5,73.4,30.04,East,94,1.0,4.0,79,0.00,,,0.00,Wunderground v.1.15,2013-06-22 05:55:00,
2013-06-22 01:57:00,80.4,73.3,30.04,East,88,0.0,4.0,79,0.00,,,0.00,Wunderground v.1.15,2013-06-22 05:57:00,
2013-06-22 01:59:00,80.3,73.2,30.04,East,89,0.0,4.0,79,0.00,,,0.00,Wunderground v.1.15,2013-06-22 05:59:00,
2013-06-22 02:00:00,80.3,73.6,30.04,SE,127,0.0,1.0,80,0.00,,,0.00,Wunderground v.1.15,2013-06-22 06:00:00,
2013-06-22 02:01:00,80.3,73.6,30.04,SE,124,0.0,1.0,80,0.00,,,0.00,Wunderground v.1.15,2013-06-22 06:01:00,
2013-06-22 02:02:00,80.3,73.6,30.04,ESE,103,1.0,1.0,80,0.00,,,0.00,Wunderground v.1.15,2013-06-22 06:02:00,
2013-06-22 02:05:00,80.3,73.6,30.04,ENE,71,1.0,4.0,80,0.00,,,0.00,Wunderground v.1.15,2013-06-22 06:05:00,
2013-06-22 02:07:00,80.3,73.6,30.04,East,91,1.0,4.0,80,0.00,,,0.00,Wunderground v.1.15,2013-06-22 06:07:00,
2013-06-22 02:08:00,80.3,73.6,30.04,East,89,1.0,4.0,80,0.00,,,0.00,Wunderground v.1.15,2013-06-22 06:08:00,
2013-06-22 02:14:00,80.2,73.5,30.04,ENE,72,1.0,2.0,80,0.00,,,0.00,Wunderground v.1.15,2013-06-22 06:14:00,
2013-06-22 02:15:00,80.2,73.5,30.04,ESE,115,1.0,2.0,80,0.00,,,0.00,Wunderground v.1.15,2013-06-22 06:15:00,
2013-06-22 02:17:00,80.2,73.5,30.04,ESE,105,1.0,2.0,80,0.00,,,0.00,Wunderground v.1.15,2013-06-22 06:17:00,
2013-06-22 02:18:00,80.2,73.5,30.04,ESE,113,1.0,2.0,80,0.00,,,0.00,Wunderground v.1.15,2013-06-22 06:18:00,
2013-06-22 02:22:00,80.2,73.5,30.04,SE,131,1.0,1.0,80,0.00,,,0.00,Wunderground v.1.15,2013-06-22 06:22:00,
2013-06-22 02:23:00,80.2,73.5,30.04,SE,132,1.0,1.0,80,0.00,,,0.00,Wunderground v.1.15,2013-06-22 06:23:00,
2013-06-22 02:24:00,80.1,73.4,30.04,ENE,77,1.0,1.0,80,0.00,,,0.00,Wunderground v.1.15,2013-06-22 06:24:00,
2013-06-22 02:25:00,80.1,73.4,30.04,East,87,1.0,2.0,80,0.00,,,0.00,Wunderground v.1.15,2013-06-22 06:25:00,
2013-06-22 02:29:00,80.0,73.3,30.03,SE,143,1.0,2.0,80,0.00,,,0.00,Wunderground v.1.15,2013-06-22 06:29:00,
2013-06-22 02:31:00,80.0,73.3,30.03,SE,127,1.0,6.0,80,0.00,,,0.00,Wunderground v.1.15,2013-06-22 06:31:00,
2013-06-22 02:33:00,79.9,73.2,30.03,SE,128,1.0,6.0,80,0.00,,,0.00,Wunderground v.1.15,2013-06-22 06:33:00,
2013-06-22 02:36:00,79.9,73.2,30.03,East,80,1.0,6.0,80,0.00,,,0.00,Wunderground v.1.15,2013-06-22 06:36:00,
2013-06-22 02:37:00,79.9,73.2,30.03,ESE,108,1.0,6.0,80,0.00,,,0.00,Wunderground v.1.15,2013-06-22 06:37:00,
2013-06-22 02:39:00,79.9,73.2,30.03,East,96,1.0,6.0,80,0.00,,,0.00,Wunderground v.1.15,2013-06-22 06:39:00,
2013-06-22 02:40:00,80.0,73.3,30.03,ENE,72,1.0,6.0,80,0.00,,,0.00,Wunderground v.1.15,2013-06-22 06:40:00,
2013-06-22 02:43:00,80.0,73.3,30.03,East,96,1.0,6.0,80,0.00,,,0.00,Wunderground v.1.15,2013-06-22 06:43:00,
2013-06-22 02:45:00,79.9,73.2,30.03,East,95,1.0,6.0,80,0.00,,,0.00,Wunderground v.1.15,2013-06-22 06:45:00,
2013-06-22 02:46:00,79.9,73.2,30.03,East,93,1.0,6.0,80,0.00,,,0.00,Wunderground v.1.15,2013-06-22 06:46:00,
2013-06-22 02:47:00,79.9,73.2,30.03,East,85,1.0,6.0,80,0.00,,,0.00,Wunderground v.1.15,2013-06-22 06:47:00,
2013-06-22 02:49:00,79.9,73.2,30.03,East,85,1.0,6.0,80,0.00,,,0.00,Wunderground v.1.15,2013-06-22 06:49:00,
2013-06-22 02:53:00,79.8,73.4,30.03,East,85,0.0,6.0,81,0.00,,,0.00,Wunderground v.1.15,2013-06-22 06:53:00,
2013-06-22 02:54:00,79.7,73.3,30.03,East,85,0.0,6.0,81,0.00,,,0.00,Wunderground v.1.15,2013-06-22 06:54:00,
2013-06-22 02:55:00,79.7,73.3,30.03,East,85,0.0,6.0,81,0.00,,,0.00,Wunderground v.1.15,2013-06-22 06:55:00,
2013-06-22 02:56:00,79.7,73.3,30.03,ESE,123,0.0,6.0,81,0.00,,,0.00,Wunderground v.1.15,2013-06-22 06:56:00,
2013-06-22 02:57:00,79.7,73.3,30.03,ESE,122,0.0,6.0,81,0.00,,,0.00,Wunderground v.1.15,2013-06-22 06:57:00,
2013-06-22 02:58:00,79.6,73.3,30.03,ESE,122,0.0,6.0,81,0.00,,,0.00,Wunderground v.1.15,2013-06-22 06:58:00,
2013-06-22 03:00:00,79.6,73.3,30.03,East,95,0.0,1.0,81,0.00,,,0.00,Wunderground v.1.15,2013-06-22 07:00:00,
2013-06-22 03:02:00,79.6,73.3,30.03,East,92,0.0,1.0,81,0.00,,,0.00,Wunderground v.1.15,2013-06-22 07:02:00,
2013-06-22 03:03:00,79.6,73.3,30.03,East,92,0.0,1.0,81,0.00,,,0.00,Wunderground v.1.15,2013-06-22 07:03:00,
2013-06-22 03:06:00,79.5,73.2,30.03,ESE,115,0.0,1.0,81,0.00,,,0.00,Wunderground v.1.15,2013-06-22 07:06:00,
2013-06-22 03:08:00,79.5,73.5,30.02,East,86,0.0,1.0,82,0.00,,,0.00,Wunderground v.1.15,2013-06-22 07:08:00,
2013-06-22 03:12:00,79.4,73.4,30.03,ENE,78,0.0,1.0,82,0.00,,,0.00,Wunderground v.1.15,2013-06-22 07:12:00,
2013-06-22 03:15:00,79.5,73.5,30.03,East,79,0.0,1.0,82,0.00,,,0.00,Wunderground v.1.15,2013-06-22 07:15:00,
2013-06-22 03:17:00,79.4,73.4,30.03,East,79,0.0,1.0,82,0.00,,,0.00,Wunderground v.1.15,2013-06-22 07:17:00,
2013-06-22 03:18:00,79.4,73.4,30.03,East,79,0.0,1.0,82,0.00,,,0.00,Wunderground v.1.15,2013-06-22 07:18:00,
2013-06-22 03:20:00,79.4,73.4,30.03,ENE,65,0.0,0.0,82,0.00,,,0.00,Wunderground v.1.15,2013-06-22 07:20:00,
2013-06-22 03:23:00,79.3,73.3,30.03,East,89,0.0,0.0,82,0.00,,,0.00,Wunderground v.1.15,2013-06-22 07:23:00,
2013-06-22 03:25:00,79.3,73.7,30.03,ESE,114,0.0,0.0,83,0.00,,,0.00,Wunderground v.1.15,2013-06-22 07:25:00,
2013-06-22 03:26:00,79.3,73.7,30.03,East,99,0.0,1.0,83,0.00,,,0.00,Wunderground v.1.15,2013-06-22 07:26:00,
2013-06-22 03:27:00,79.3,73.7,30.03,East,86,0.0,1.0,83,0.00,,,0.00,Wunderground v.1.15,2013-06-22 07:27:00,
2013-06-22 03:30:00,79.3,73.7,30.03,ESE,119,0.0,1.0,83,0.00,,,0.00,Wunderground v.1.15,2013-06-22 07:30:00,
2013-06-22 03:31:00,79.3,73.7,30.03,SE,141,0.0,4.0,83,0.00,,,0.00,Wunderground v.1.15,2013-06-22 07:31:00,
2013-06-22 03:32:00,79.3,73.7,30.03,SE,125,0.0,4.0,83,0.00,,,0.00,Wunderground v.1.15,2013-06-22 07:32:00,
2013-06-22 03:37:00,79.5,73.5,30.03,ENE,73,1.0,4.0,82,0.00,,,0.00,Wunderground v.1.15,2013-06-22 07:37:00,
2013-06-22 03:38:00,79.5,73.5,30.03,ESE,105,1.0,4.0,82,0.00,,,0.00,Wunderground v.1.15,2013-06-22 07:38:00,
2013-06-22 03:40:00,79.6,73.6,30.03,ESE,108,1.0,4.0,82,0.00,,,0.00,Wunderground v.1.15,2013-06-22 07:40:00,
2013-06-22 03:43:00,79.7,73.7,30.03,SE,137,1.0,4.0,82,0.00,,,0.00,Wunderground v.1.15,2013-06-22 07:43:00,
2013-06-22 03:44:00,79.7,73.7,30.03,ESE,114,1.0,4.0,82,0.00,,,0.00,Wunderground v.1.15,2013-06-22 07:44:00,
2013-06-22 03:46:00,79.7,73.7,30.02,East,98,1.0,4.0,82,0.00,,,0.00,Wunderground v.1.15,2013-06-22 07:46:00,
2013-06-22 03:47:00,79.7,73.7,30.03,East,98,1.0,4.0,82,0.00,,,0.00,Wunderground v.1.15,2013-06-22 07:47:00,
2013-06-22 03:50:00,79.8,73.4,30.02,SE,124,1.0,1.0,81,0.00,,,0.00,Wunderground v.1.15,2013-06-22 07:50:00,
2013-06-22 03:52:00,79.7,73.3,30.03,East,101,1.0,4.0,81,0.00,,,0.00,Wunderground v.1.15,2013-06-22 07:52:00,
2013-06-22 03:54:00,79.7,73.3,30.03,East,94,1.0,4.0,81,0.00,,,0.00,Wunderground v.1.15,2013-06-22 07:54:00,
2013-06-22 03:55:00,79.7,73.3,30.02,East,83,1.0,4.0,81,0.00,,,0.00,Wunderground v.1.15,2013-06-22 07:55:00,
2013-06-22 03:56:00,79.7,73.3,30.02,ESE,116,1.0,4.0,81,0.00,,,0.00,Wunderground v.1.15,2013-06-22 07:56:00,
2013-06-22 04:00:00,79.7,73.3,30.02,East,95,0.0,0.0,81,0.00,,,0.00,Wunderground v.1.15,2013-06-22 08:00:00,
2013-06-22 04:01:00,79.7,73.3,30.02,East,95,0.0,0.0,81,0.00,,,0.00,Wunderground v.1.15,2013-06-22 08:01:00,
2013-06-22 04:03:00,79.7,73.3,30.02,East,95,0.0,0.0,81,0.00,,,0.00,Wunderground v.1.15,2013-06-22 08:03:00,
2013-06-22 04:08:00,79.6,73.3,30.02,ESE,122,0.0,0.0,81,0.00,,,0.00,Wunderground v.1.15,2013-06-22 08:08:00,
2013-06-22 04:09:00,79.6,73.3,30.02,ESE,110,0.0,1.0,81,0.00,,,0.00,Wunderground v.1.15,2013-06-22 08:09:00,
2013-06-22 04:11:00,79.6,73.3,30.02,ESE,102,0.0,1.0,81,0.00,,,0.00,Wunderground v.1.15,2013-06-22 08:11:00,
2013-06-22 04:14:00,79.6,73.3,30.02,ESE,113,0.0,1.0,81,0.00,,,0.00,Wunderground v.1.15,2013-06-22 08:14:00,
2013-06-22 04:16:00,79.6,72.9,30.03,ESE,113,0.0,1.0,80,0.00,,,0.00,Wunderground v.1.15,2013-06-22 08:16:00,
2013-06-22 04:17:00,79.5,73.2,30.03,ESE,113,0.0,1.0,81,0.00,,,0.00,Wunderground v.1.15,2013-06-22 08:17:00,
2013-06-22 04:21:00,79.4,73.1,30.03,ESE,113,0.0,1.0,81,0.00,,,0.00,Wunderground v.1.15,2013-06-22 08:21:00,
2013-06-22 04:23:00,79.4,73.1,30.02,ESE,113,0.0,1.0,81,0.00,,,0.00,Wunderground v.1.15,2013-06-22 08:23:00,
2013-06-22 04:24:00,79.3,73.0,30.03,ESE,113,0.0,1.0,81,0.00,,,0.00,Wunderground v.1.15,2013-06-22 08:24:00,
2013-06-22 04:27:00,79.2,72.9,30.03,ESE,113,0.0,1.0,81,0.00,,,0.00,Wunderground v.1.15,2013-06-22 08:27:00,
2013-06-22 04:29:00,79.1,72.8,30.03,ESE,113,0.0,1.0,81,0.00,,,0.00,Wunderground v.1.15,2013-06-22 08:29:00,
2013-06-22 04:30:00,79.0,73.0,30.03,ESE,113,0.0,0.0,82,0.00,,,0.00,Wunderground v.1.15,2013-06-22 08:30:00,
2013-06-22 04:32:00,78.9,72.9,30.02,ESE,113,0.0,3.0,82,0.00,,,0.00,Wunderground v.1.15,2013-06-22 08:32:00,
2013-06-22 04:35:00,78.9,72.9,30.02,ESE,113,0.0,3.0,82,0.00,,,0.00,Wunderground v.1.15,2013-06-22 08:35:00,
2013-06-22 04:37:00,78.8,72.8,30.02,ESE,113,0.0,3.0,82,0.00,,,0.00,Wunderground v.1.15,2013-06-22 08:37:00,
2013-06-22 04:39:00,78.8,72.8,30.02,ESE,113,0.0,3.0,82,0.00,,,0.00,Wunderground v.1.15,2013-06-22 08:39:00,
2013-06-22 04:42:00,78.7,72.7,30.02,ESE,113,0.0,3.0,82,0.00,,,0.00,Wunderground v.1.15,2013-06-22 08:42:00,
2013-06-22 04:44:00,78.6,72.6,30.02,ESE,113,0.0,3.0,82,0.00,,,0.00,Wunderground v.1.15,2013-06-22 08:44:00,
2013-06-22 04:46:00,78.6,72.6,30.02,ESE,113,0.0,3.0,82,0.00,,,0.00,Wunderground v.1.15,2013-06-22 08:46:00,
2013-06-22 04:47:00,78.6,73.0,30.02,ESE,113,0.0,3.0,83,0.00,,,0.00,Wunderground v.1.15,2013-06-22 08:47:00,
2013-06-22 04:49:00,78.5,72.9,30.03,ESE,113,0.0,3.0,83,0.00,,,0.00,Wunderground v.1.15,2013-06-22 08:49:00,
2013-06-22 04:53:00,78.5,72.9,30.03,ESE,113,0.0,3.0,83,0.00,,,0.00,Wunderground v.1.15,2013-06-22 08:53:00,
2013-06-22 04:55:00,78.4,72.8,30.03,ESE,113,0.0,3.0,83,0.00,,,0.00,Wunderground v.1.15,2013-06-22 08:55:00,
2013-06-22 04:56:00,78.3,72.7,30.03,ESE,113,0.0,3.0,83,0.00,,,0.00,Wunderground v.1.15,2013-06-22 08:56:00,
2013-06-22 04:59:00,78.3,73.1,30.03,ESE,112,0.0,3.0,84,0.00,,,0.00,Wunderground v.1.15,2013-06-22 08:59:00,
2013-06-22 05:00:00,78.3,73.1,30.03,ESE,112,0.0,0.0,84,0.00,,,0.00,Wunderground v.1.15,2013-06-22 09:00:00,
2013-06-22 05:04:00,78.2,73.0,30.03,ESE,112,0.0,0.0,84,0.00,,,0.00,Wunderground v.1.15,2013-06-22 09:04:00,
2013-06-22 05:05:00,78.2,73.0,30.03,ESE,112,0.0,0.0,84,0.00,,,0.00,Wunderground v.1.15,2013-06-22 09:05:00,
2013-06-22 05:06:00,78.1,72.9,30.03,ESE,112,0.0,0.0,84,0.00,,,0.00,Wunderground v.1.15,2013-06-22 09:06:00,
2013-06-22 05:09:00,78.0,72.8,30.03,ESE,112,0.0,0.0,84,0.00,,,0.00,Wunderground v.1.15,2013-06-22 09:09:00,
2013-06-22 05:11:00,78.0,72.8,30.03,ESE,112,0.0,0.0,84,0.00,,,0.00,Wunderground v.1.15,2013-06-22 09:11:00,
2013-06-22 05:15:00,77.9,72.7,30.03,ESE,112,0.0,0.0,84,0.00,,,0.00,Wunderground v.1.15,2013-06-22 09:15:00,
2013-06-22 05:17:00,77.9,72.7,30.03,ESE,112,0.0,0.0,84,0.00,,,0.00,Wunderground v.1.15,2013-06-22 09:17:00,
2013-06-22 05:19:00,77.8,72.6,30.03,ESE,112,0.0,0.0,84,0.00,,,0.00,Wunderground v.1.15,2013-06-22 09:19:00,
2013-06-22 05:21:00,77.8,72.6,30.03,ESE,112,0.0,0.0,84,0.00,,,0.00,Wunderground v.1.15,2013-06-22 09:21:00,
2013-06-22 05:22:00,77.8,72.9,30.03,ESE,112,0.0,0.0,85,0.00,,,0.00,Wunderground v.1.15,2013-06-22 09:22:00,
2013-06-22 05:24:00,77.7,72.5,30.03,ESE,112,0.0,0.0,84,0.00,,,0.00,Wunderground v.1.15,2013-06-22 09:24:00,
2013-06-22 05:26:00,77.6,72.4,30.03,ESE,112,0.0,0.0,84,0.00,,,0.00,Wunderground v.1.15,2013-06-22 09:26:00,
2013-06-22 05:27:00,77.5,72.3,30.03,ESE,112,0.0,0.0,84,0.00,,,0.00,Wunderground v.1.15,2013-06-22 09:27:00,
2013-06-22 05:29:00,77.4,72.9,30.03,ESE,112,0.0,0.0,86,0.00,,,0.00,Wunderground v.1.15,2013-06-22 09:29:00,
2013-06-22 05:30:00,77.4,72.9,30.03,ESE,112,0.0,0.0,86,0.00,,,0.00,Wunderground v.1.15,2013-06-22 09:30:00,
2013-06-22 05:31:00,77.4,72.9,30.03,ESE,112,0.0,3.0,86,0.00,,,0.00,Wunderground v.1.15,2013-06-22 09:31:00,
2013-06-22 05:32:00,77.3,72.8,30.03,ESE,112,0.0,3.0,86,0.00,,,0.00,Wunderground v.1.15,2013-06-22 09:32:00,
2013-06-22 05:34:00,77.3,73.1,30.03,ESE,112,0.0,3.0,87,0.00,,,0.00,Wunderground v.1.15,2013-06-22 09:34:00,
2013-06-22 05:38:00,77.1,72.9,30.02,ESE,112,0.0,3.0,87,0.00,,,0.00,Wunderground v.1.15,2013-06-22 09:38:00,
2013-06-22 05:40:00,77.0,72.5,30.03,ESE,112,0.0,3.0,86,0.00,,,0.00,Wunderground v.1.15,2013-06-22 09:40:00,
2013-06-22 05:41:00,76.9,72.4,30.03,ESE,112,0.0,3.0,86,0.00,,,0.00,Wunderground v.1.15,2013-06-22 09:41:00,
2013-06-22 05:42:00,76.9,72.7,30.03,ESE,112,0.0,3.0,87,0.00,,,0.00,Wunderground v.1.15,2013-06-22 09:42:00,
2013-06-22 05:46:00,76.6,72.4,30.03,ESE,112,0.0,3.0,87,0.00,,,0.00,Wunderground v.1.15,2013-06-22 09:46:00,
2013-06-22 05:47:00,76.5,72.3,30.03,ESE,112,0.0,3.0,87,0.00,,,0.00,Wunderground v.1.15,2013-06-22 09:47:00,
2013-06-22 05:49:00,76.4,72.2,30.03,ESE,112,0.0,3.0,87,0.00,,,0.00,Wunderground v.1.15,2013-06-22 09:49:00,
2013-06-22 05:50:00,76.3,72.1,30.03,ESE,112,0.0,3.0,87,0.00,,,0.00,Wunderground v.1.15,2013-06-22 09:50:00,
2013-06-22 05:53:00,76.4,72.6,30.03,ESE,112,0.0,3.0,88,0.00,,,0.00,Wunderground v.1.15,2013-06-22 09:53:00,
2013-06-22 05:54:00,76.4,72.6,30.03,ESE,112,0.0,3.0,88,0.00,,,0.00,Wunderground v.1.15,2013-06-22 09:54:00,
2013-06-22 05:55:00,76.4,72.6,30.03,ESE,112,0.0,3.0,88,0.00,,,0.00,Wunderground v.1.15,2013-06-22 09:55:00,
2013-06-22 05:59:00,76.5,72.7,30.03,ESE,112,0.0,3.0,88,0.00,,,0.00,Wunderground v.1.15,2013-06-22 09:59:00,
2013-06-22 06:00:00,76.5,72.7,30.03,ESE,112,0.0,0.0,88,0.00,,,0.00,Wunderground v.1.15,2013-06-22 10:00:00,
2013-06-22 06:01:00,76.5,72.7,30.03,ESE,112,0.0,0.0,88,0.00,,,0.00,Wunderground v.1.15,2013-06-22 10:01:00,
2013-06-22 06:02:00,76.5,72.7,30.03,ESE,112,0.0,0.0,88,0.00,,,0.00,Wunderground v.1.15,2013-06-22 10:02:00,
2013-06-22 06:06:00,76.5,73.0,30.03,ESE,112,0.0,0.0,89,0.00,,,0.00,Wunderground v.1.15,2013-06-22 10:06:00,
2013-06-22 06:07:00,76.5,73.0,30.03,ESE,112,0.0,0.0,89,0.00,,,0.00,Wunderground v.1.15,2013-06-22 10:07:00,
2013-06-22 06:10:00,76.4,72.9,30.03,ESE,112,0.0,0.0,89,0.00,,,0.00,Wunderground v.1.15,2013-06-22 10:10:00,
2013-06-22 06:11:00,76.4,72.9,30.03,ESE,112,0.0,0.0,89,0.00,,,0.00,Wunderground v.1.15,2013-06-22 10:11:00,
2013-06-22 06:12:00,76.5,73.0,30.03,ESE,112,0.0,0.0,89,0.00,,,0.00,Wunderground v.1.15,2013-06-22 10:12:00,
2013-06-22 06:17:00,76.9,73.1,30.03,East,88,0.0,1.0,88,0.00,,,0.00,Wunderground v.1.15,2013-06-22 10:17:00,
2013-06-22 06:18:00,77.0,73.2,30.03,ESE,108,0.0,1.0,88,0.00,,,0.00,Wunderground v.1.15,2013-06-22 10:18:00,
2013-06-22 06:21:00,77.3,73.1,30.03,SE,141,0.0,0.0,87,0.00,,,0.00,Wunderground v.1.15,2013-06-22 10:21:00,
2013-06-22 06:23:00,77.5,73.0,30.03,East,82,0.0,1.0,86,0.00,,,0.00,Wunderground v.1.15,2013-06-22 10:23:00,
2013-06-22 06:24:00,77.6,73.1,30.03,East,81,0.0,1.0,86,0.00,,,0.00,Wunderground v.1.15,2013-06-22 10:24:00,
2013-06-22 06:27:00,77.7,73.2,30.03,East,81,0.0,1.0,86,0.00,,,0.00,Wunderground v.1.15,2013-06-22 10:27:00,
2013-06-22 06:28:00,77.8,73.3,30.03,East,82,0.0,1.0,86,0.00,,,0.00,Wunderground v.1.15,2013-06-22 10:28:00,
2013-06-22 06:29:00,77.7,73.2,30.03,East,81,0.0,1.0,86,0.00,,,0.00,Wunderground v.1.15,2013-06-22 10:29:00,
2013-06-22 06:32:00,77.7,73.2,30.03,East,82,0.0,1.0,86,0.00,,,0.00,Wunderground v.1.15,2013-06-22 10:32:00,
2013-06-22 06:33:00,77.7,73.2,30.03,East,82,0.0,1.0,86,0.00,,,0.00,Wunderground v.1.15,2013-06-22 10:33:00,
2013-06-22 06:35:00,77.7,73.2,30.03,East,81,0.0,1.0,86,0.00,,,0.00,Wunderground v.1.15,2013-06-22 10:35:00,
2013-06-22 06:38:00,77.6,73.1,30.04,East,81,0.0,1.0,86,0.00,,,0.00,Wunderground v.1.15,2013-06-22 10:38:00,
2013-06-22 06:41:00,77.5,73.3,30.04,East,81,0.0,1.0,87,0.00,,,0.00,Wunderground v.1.15,2013-06-22 10:41:00,
2013-06-22 06:43:00,77.4,73.2,30.04,East,81,0.0,1.0,87,0.00,,,0.00,Wunderground v.1.15,2013-06-22 10:43:00,
2013-06-22 06:44:00,77.4,73.2,30.04,East,82,0.0,1.0,87,0.00,,,0.00,Wunderground v.1.15,2013-06-22 10:44:00,
2013-06-22 06:45:00,77.3,73.1,30.04,East,82,0.0,1.0,87,0.00,,,0.00,Wunderground v.1.15,2013-06-22 10:45:00,
2013-06-22 06:46:00,77.3,73.1,30.04,East,82,0.0,1.0,87,0.00,,,0.00,Wunderground v.1.15,2013-06-22 10:46:00,
2013-06-22 06:50:00,77.1,72.9,30.04,East,81,0.0,1.0,87,0.00,,,0.00,Wunderground v.1.15,2013-06-22 10:50:00,
2013-06-22 06:51:00,77.0,72.8,30.04,East,81,0.0,1.0,87,0.00,,,0.00,Wunderground v.1.15,2013-06-22 10:51:00,
2013-06-22 06:54:00,77.1,73.3,30.04,East,81,0.0,1.0,88,0.00,,,0.00,Wunderground v.1.15,2013-06-22 10:54:00,
2013-06-22 06:56:00,77.1,73.3,30.04,East,82,0.0,1.0,88,0.00,,,0.00,Wunderground v.1.15,2013-06-22 10:56:00,
2013-06-22 06:57:00,77.1,73.3,30.04,East,82,0.0,1.0,88,0.00,,,0.00,Wunderground v.1.15,2013-06-22 10:57:00,
2013-06-22 06:59:00,77.1,73.3,30.04,East,81,0.0,1.0,88,0.00,,,0.00,Wunderground v.1.15,2013-06-22 10:59:00,
2013-06-22 07:00:00,77.1,73.3,30.04,East,82,0.0,0.0,88,0.00,,,0.00,Wunderground v.1.15,2013-06-22 11:00:00,
2013-06-22 07:01:00,77.1,73.3,30.04,East,82,0.0,0.0,88,0.00,,,0.00,Wunderground v.1.15,2013-06-22 11:01:00,
2013-06-22 07:05:00,77.3,73.8,30.04,East,82,0.0,0.0,89,0.00,,,0.00,Wunderground v.1.15,2013-06-22 11:05:00,
2013-06-22 07:06:00,77.4,73.9,30.05,East,81,0.0,0.0,89,0.00,,,0.00,Wunderground v.1.15,2013-06-22 11:06:00,
2013-06-22 07:08:00,77.7,74.2,30.05,East,81,0.0,0.0,89,0.00,,,0.00,Wunderground v.1.15,2013-06-22 11:08:00,
2013-06-22 07:09:00,77.7,73.9,30.04,East,81,0.0,0.0,88,0.00,,,0.00,Wunderground v.1.15,2013-06-22 11:09:00,
2013-06-22 07:13:00,78.3,74.5,30.05,East,81,0.0,0.0,88,0.00,,,0.00,Wunderground v.1.15,2013-06-22 11:13:00,
2013-06-22 07:14:00,78.5,74.3,30.05,East,82,0.0,0.0,87,0.00,,,0.00,Wunderground v.1.15,2013-06-22 11:14:00,
2013-06-22 07:15:00,78.6,74.4,30.05,East,82,0.0,0.0,87,0.00,,,0.00,Wunderground v.1.15,2013-06-22 11:15:00,
2013-06-22 07:17:00,79.0,74.8,30.05,East,82,0.0,0.0,87,0.00,,,0.00,Wunderground v.1.15,2013-06-22 11:17:00,
2013-06-22 07:19:00,79.3,74.4,30.05,East,81,0.0,0.0,85,0.00,,,0.00,Wunderground v.1.15,2013-06-22 11:19:00,
2013-06-22 07:20:00,79.5,74.6,30.05,East,82,0.0,0.0,85,0.00,,,0.00,Wunderground v.1.15,2013-06-22 11:20:00,
2013-06-22 07:21:00,79.6,74.7,30.05,East,82,0.0,0.0,85,0.00,,,0.00,Wunderground v.1.15,2013-06-22 11:21:00,
2013-06-22 07:26:00,80.4,74.8,30.05,East,82,0.0,0.0,83,0.00,,,0.00,Wunderground v.1.15,2013-06-22 11:26:00,
2013-06-22 07:27:00,80.5,74.5,30.05,East,82,0.0,0.0,82,0.00,,,0.00,Wunderground v.1.15,2013-06-22 11:27:00,
2013-06-22 07:28:00,80.7,74.7,30.05,East,82,0.0,0.0,82,0.00,,,0.00,Wunderground v.1.15,2013-06-22 11:28:00,
2013-06-22 07:29:00,80.8,74.4,30.05,East,82,0.0,0.0,81,0.00,,,0.00,Wunderground v.1.15,2013-06-22 11:29:00,
2013-06-22 07:30:00,81.0,74.6,30.05,East,82,0.0,0.0,81,0.00,,,0.00,Wunderground v.1.15,2013-06-22 11:30:00,
2013-06-22 07:32:00,81.2,74.8,30.05,East,82,0.0,2.0,81,0.00,,,0.00,Wunderground v.1.15,2013-06-22 11:32:00,
2013-06-22 07:34:00,81.3,74.5,30.05,East,82,0.0,2.0,80,0.00,,,0.00,Wunderground v.1.15,2013-06-22 11:34:00,
2013-06-22 07:35:00,81.5,74.7,30.05,ENE,68,0.0,2.0,80,0.00,,,0.00,Wunderground v.1.15,2013-06-22 11:35:00,
2013-06-22 07:36:00,81.6,74.5,30.05,East,83,0.0,2.0,79,0.00,,,0.00,Wunderground v.1.15,2013-06-22 11:36:00,
2013-06-22 07:39:00,81.7,74.5,30.05,ENE,63,0.0,2.0,79,0.00,,,0.00,Wunderground v.1.15,2013-06-22 11:39:00,
2013-06-22 07:41:00,81.8,74.3,30.05,East,82,1.0,2.0,78,0.00,,,0.00,Wunderground v.1.15,2013-06-22 11:41:00,
2013-06-22 07:42:00,81.8,74.6,30.05,ESE,105,1.0,2.0,79,0.00,,,0.00,Wunderground v.1.15,2013-06-22 11:42:00,
2013-06-22 07:44:00,81.9,74.4,30.05,East,81,1.0,2.0,78,0.00,,,0.00,Wunderground v.1.15,2013-06-22 11:44:00,
2013-06-22 07:45:00,81.9,74.4,30.05,East,101,1.0,2.0,78,0.00,,,0.00,Wunderground v.1.15,2013-06-22 11:45:00,
2013-06-22 07:47:00,82.1,74.6,30.06,East,82,1.0,2.0,78,0.00,,,0.00,Wunderground v.1.15,2013-06-22 11:47:00,
2013-06-22 07:50:00,82.3,74.4,30.06,SE,136,1.0,1.0,77,0.00,,,0.00,Wunderground v.1.15,2013-06-22 11:50:00,
2013-06-22 07:52:00,82.4,74.5,30.06,East,94,1.0,2.0,77,0.00,,,0.00,Wunderground v.1.15,2013-06-22 11:52:00,
2013-06-22 07:53:00,82.5,74.6,30.06,East,84,1.0,2.0,77,0.00,,,0.00,Wunderground v.1.15,2013-06-22 11:53:00,
2013-06-22 07:58:00,82.7,74.4,30.05,ENE,67,1.0,2.0,76,0.00,,,0.00,Wunderground v.1.15,2013-06-22 11:58:00,
2013-06-22 07:59:00,82.7,74.4,30.05,East,87,1.0,2.0,76,0.00,,,0.00,Wunderground v.1.15,2013-06-22 11:59:00,
2013-06-22 08:02:00,82.7,74.4,30.05,ESE,106,1.0,2.0,76,0.00,,,0.00,Wunderground v.1.15,2013-06-22 12:02:00,
2013-06-22 08:03:00,82.8,74.5,30.06,ENE,74,1.0,2.0,76,0.00,,,0.00,Wunderground v.1.15,2013-06-22 12:03:00,
2013-06-22 08:05:00,82.9,74.6,30.05,ENE,77,2.0,2.0,76,0.00,,,0.00,Wunderground v.1.15,2013-06-22 12:05:00,
2013-06-22 08:06:00,83.0,74.6,30.06,East,79,2.0,2.0,76,0.00,,,0.00,Wunderground v.1.15,2013-06-22 12:06:00,
2013-06-22 08:08:00,83.1,74.4,30.05,ENE,58,2.0,4.0,75,0.00,,,0.00,Wunderground v.1.15,2013-06-22 12:08:00,
2013-06-22 08:11:00,83.2,74.8,30.06,East,82,1.0,3.0,76,0.00,,,0.00,Wunderground v.1.15,2013-06-22 12:11:00,
2013-06-22 08:12:00,83.3,74.5,30.06,East,84,2.0,3.0,75,0.00,,,0.00,Wunderground v.1.15,2013-06-22 12:12:00,
2013-06-22 08:14:00,83.3,74.5,30.06,SE,139,2.0,3.0,75,0.00,,,0.00,Wunderground v.1.15,2013-06-22 12:14:00,
2013-06-22 08:17:00,83.6,74.4,30.06,East,79,1.0,3.0,74,0.00,,,0.00,Wunderground v.1.15,2013-06-22 12:17:00,
2013-06-22 08:19:00,83.7,74.1,30.06,SSE,161,2.0,4.0,73,0.00,,,0.00,Wunderground v.1.15,2013-06-22 12:19:00,
2013-06-22 08:20:00,83.7,74.5,30.06,SE,146,2.0,2.0,74,0.00,,,0.00,Wunderground v.1.15,2013-06-22 12:20:00,
2013-06-22 08:22:00,83.8,74.2,30.06,ESE,113,2.0,2.0,73,0.00,,,0.00,Wunderground v.1.15,2013-06-22 12:22:00,
2013-06-22 08:26:00,84.0,74.8,30.06,ESE,116,3.0,3.0,74,0.00,,,0.00,Wunderground v.1.15,2013-06-22 12:26:00,
2013-06-22 08:27:00,84.1,74.5,30.06,ESE,104,3.0,3.0,73,0.00,,,0.00,Wunderground v.1.15,2013-06-22 12:27:00,
2013-06-22 08:28:00,84.2,74.6,30.06,ESE,116,3.0,3.0,73,0.00,,,0.00,Wunderground v.1.15,2013-06-22 12:28:00,
2013-06-22 08:29:00,84.3,74.7,30.06,East,84,2.0,4.0,73,0.00,,,0.00,Wunderground v.1.15,2013-06-22 12:29:00,
2013-06-22 08:31:00,84.5,74.1,30.06,ENE,65,2.0,3.0,71,0.00,,,0.00,Wunderground v.1.15,2013-06-22 12:31:00,
2013-06-22 08:33:00,84.5,74.1,30.06,ENE,76,3.0,4.0,71,0.00,,,0.00,Wunderground v.1.15,2013-06-22 12:33:00,
2013-06-22 08:37:00,84.5,74.1,30.06,ENE,78,3.0,7.0,71,0.00,,,0.00,Wunderground v.1.15,2013-06-22 12:37:00,
2013-06-22 08:39:00,84.6,74.2,30.06,ENE,60,3.0,7.0,71,0.00,,,0.00,Wunderground v.1.15,2013-06-22 12:39:00,
2013-06-22 08:40:00,84.6,74.2,30.07,ESE,110,3.0,3.0,71,0.00,,,0.00,Wunderground v.1.15,2013-06-22 12:40:00,
2013-06-22 08:43:00,84.6,74.2,30.07,East,79,3.0,6.0,71,0.00,,,0.00,Wunderground v.1.15,2013-06-22 12:43:00,
2013-06-22 08:45:00,84.7,74.3,30.07,ENE,63,3.0,6.0,71,0.00,,,0.00,Wunderground v.1.15,2013-06-22 12:45:00,
2013-06-22 08:46:00,84.8,74.3,30.07,ESE,105,3.0,6.0,71,0.00,,,0.00,Wunderground v.1.15,2013-06-22 12:46:00,
2013-06-22 08:48:00,84.9,74.4,30.07,SE,131,3.0,6.0,71,0.00,,,0.00,Wunderground v.1.15,2013-06-22 12:48:00,
2013-06-22 08:49:00,85.1,75.1,30.07,East,100,3.0,6.0,72,0.00,,,0.00,Wunderground v.1.15,2013-06-22 12:49:00,
2013-06-22 08:51:00,85.3,74.0,30.07,East,96,3.0,6.0,69,0.00,,,0.00,Wunderground v.1.15,2013-06-22 12:51:00,
2013-06-22 08:54:00,85.3,74.0,30.07,ENE,70,3.0,6.0,69,0.00,,,0.00,Wunderground v.1.15,2013-06-22 12:54:00,
2013-06-22 08:55:00,85.3,73.5,30.07,South,170,3.0,6.0,68,0.00,,,0.00,Wunderground v.1.15,2013-06-22 12:55:00,
2013-06-22 08:59:00,85.3,74.0,30.07,ESE,116,4.0,6.0,69,0.00,,,0.00,Wunderground v.1.15,2013-06-22 12:59:00,
2013-06-22 09:00:00,85.4,74.1,30.07,East,81,4.0,4.0,69,0.00,,,0.00,Wunderground v.1.15,2013-06-22 13:00:00,
2013-06-22 09:01:00,85.5,74.2,30.07,ENE,57,4.0,4.0,69,0.00,,,0.00,Wunderground v.1.15,2013-06-22 13:01:00,
2013-06-22 09:02:00,85.5,73.3,30.07,ENE,61,4.0,6.0,67,0.00,,,0.00,Wunderground v.1.15,2013-06-22 13:02:00,
2013-06-22 09:03:00,85.5,73.7,30.07,ESE,123,3.0,6.0,68,0.00,,,0.00,Wunderground v.1.15,2013-06-22 13:03:00,
2013-06-22 09:07:00,85.4,73.6,30.07,ENE,77,4.0,6.0,68,0.00,,,0.00,Wunderground v.1.15,2013-06-22 13:07:00,
2013-06-22 09:08:00,85.4,74.1,30.07,ESE,119,3.0,6.0,69,0.00,,,0.00,Wunderground v.1.15,2013-06-22 13:08:00,
2013-06-22 09:11:00,85.6,73.8,30.07,SE,127,4.0,5.0,68,0.00,,,0.00,Wunderground v.1.15,2013-06-22 13:11:00,
2013-06-22 09:15:00,85.8,74.0,30.07,ESE,122,3.0,5.0,68,0.00,,,0.00,Wunderground v.1.15,2013-06-22 13:15:00,
2013-06-22 09:16:00,85.9,74.1,30.07,SSE,148,3.0,5.0,68,0.00,,,0.00,Wunderground v.1.15,2013-06-22 13:16:00,
2013-06-22 09:18:00,85.9,73.7,30.07,East,98,3.0,5.0,67,0.00,,,0.00,Wunderground v.1.15,2013-06-22 13:18:00,
2013-06-22 09:20:00,85.9,73.2,30.07,SE,131,3.0,3.0,66,0.00,,,0.00,Wunderground v.1.15,2013-06-22 13:20:00,
2013-06-22 09:25:00,86.0,72.9,30.07,SSE,153,3.0,4.0,65,0.00,,,0.00,Wunderground v.1.15,2013-06-22 13:25:00,
2013-06-22 09:27:00,86.0,73.3,30.07,SE,143,4.0,5.0,66,0.00,,,0.00,Wunderground v.1.15,2013-06-22 13:27:00,
2013-06-22 09:28:00,86.0,73.3,30.07,ESE,108,4.0,5.0,66,0.00,,,0.00,Wunderground v.1.15,2013-06-22 13:28:00,
2013-06-22 09:29:00,86.1,73.4,30.07,East,99,4.0,5.0,66,0.00,,,0.00,Wunderground v.1.15,2013-06-22 13:29:00,
2013-06-22 09:30:00,86.2,73.5,30.08,ENE,58,3.0,6.0,66,0.00,,,0.00,Wunderground v.1.15,2013-06-22 13:30:00,
2013-06-22 09:33:00,86.1,73.9,30.08,ENE,73,4.0,8.0,67,0.00,,,0.00,Wunderground v.1.15,2013-06-22 13:33:00,
2013-06-22 09:36:00,86.1,73.4,30.08,SE,141,3.0,8.0,66,0.00,,,0.00,Wunderground v.1.15,2013-06-22 13:36:00,
2013-06-22 09:39:00,86.1,73.4,30.08,SE,146,3.0,8.0,66,0.00,,,0.00,Wunderground v.1.15,2013-06-22 13:39:00,
2013-06-22 09:41:00,86.0,73.3,30.08,SE,134,4.0,8.0,66,0.00,,,0.00,Wunderground v.1.15,2013-06-22 13:41:00,
2013-06-22 09:42:00,86.0,73.3,30.08,East,89,4.0,8.0,66,0.00,,,0.00,Wunderground v.1.15,2013-06-22 13:42:00,
2013-06-22 09:45:00,86.0,73.8,30.08,SE,126,4.0,8.0,67,0.00,,,0.00,Wunderground v.1.15,2013-06-22 13:45:00,
2013-06-22 09:47:00,86.2,74.0,30.08,SSE,149,4.0,8.0,67,0.00,,,0.00,Wunderground v.1.15,2013-06-22 13:47:00,
2013-06-22 09:48:00,86.3,74.0,30.08,SSE,147,4.0,8.0,67,0.00,,,0.00,Wunderground v.1.15,2013-06-22 13:48:00,
2013-06-22 09:49:00,86.4,73.7,30.08,SE,132,4.0,8.0,66,0.00,,,0.00,Wunderground v.1.15,2013-06-22 13:49:00,
2013-06-22 09:52:00,86.6,74.3,30.07,ENE,65,3.0,8.0,67,0.00,,,0.00,Wunderground v.1.15,2013-06-22 13:52:00,
2013-06-22 09:54:00,86.7,73.5,30.08,ESE,118,3.0,8.0,65,0.00,,,0.00,Wunderground v.1.15,2013-06-22 13:54:00,
2013-06-22 09:55:00,86.7,72.6,30.08,NE,53,3.0,8.0,63,0.00,,,0.00,Wunderground v.1.15,2013-06-22 13:55:00,
2013-06-22 09:57:00,86.8,73.2,30.08,East,82,3.0,8.0,64,0.00,,,0.00,Wunderground v.1.15,2013-06-22 13:57:00,
2013-06-22 09:59:00,86.9,72.8,30.08,ENE,63,3.0,8.0,63,0.00,,,0.00,Wunderground v.1.15,2013-06-22 13:59:00,
2013-06-22 10:00:00,86.8,73.2,30.07,East,98,3.0,4.0,64,0.00,,,0.00,Wunderground v.1.15,2013-06-22 14:00:00,
2013-06-22 10:02:00,86.8,73.2,30.08,East,89,3.0,4.0,64,0.00,,,0.00,Wunderground v.1.15,2013-06-22 14:02:00,
2013-06-22 10:04:00,86.8,73.2,30.08,ESE,113,3.0,7.0,64,0.00,,,0.00,Wunderground v.1.15,2013-06-22 14:04:00,
2013-06-22 10:05:00,86.7,72.6,30.08,ENE,65,3.0,7.0,63,0.00,,,0.00,Wunderground v.1.15,2013-06-22 14:05:00,
2013-06-22 10:10:00,86.9,72.8,30.08,ENE,60,3.0,4.0,63,0.00,,,0.00,Wunderground v.1.15,2013-06-22 14:10:00,
2013-06-22 10:11:00,86.9,73.3,30.08,ESE,120,3.0,4.0,64,0.00,,,0.00,Wunderground v.1.15,2013-06-22 14:11:00,
2013-06-22 10:16:00,87.3,73.6,30.08,South,177,2.0,4.0,64,0.00,,,0.00,Wunderground v.1.15,2013-06-22 14:16:00,
2013-06-22 10:17:00,87.4,73.7,30.08,NE,56,2.0,4.0,64,0.00,,,0.00,Wunderground v.1.15,2013-06-22 14:17:00,
2013-06-22 10:19:00,87.2,73.5,30.08,ESE,114,2.0,5.0,64,0.00,,,0.00,Wunderground v.1.15,2013-06-22 14:19:00,
2013-06-22 10:23:00,87.2,73.5,30.08,SSE,161,3.0,5.0,64,0.00,,,0.00,Wunderground v.1.15,2013-06-22 14:23:00,
2013-06-22 10:24:00,87.2,73.5,30.08,SE,127,3.0,5.0,64,0.00,,,0.00,Wunderground v.1.15,2013-06-22 14:24:00,
2013-06-22 10:25:00,87.4,73.7,30.08,South,177,3.0,5.0,64,0.00,,,0.00,Wunderground v.1.15,2013-06-22 14:25:00,
2013-06-22 10:27:00,87.6,73.0,30.08,ENE,59,3.0,5.0,62,0.00,,,0.00,Wunderground v.1.15,2013-06-22 14:27:00,
2013-06-22 10:28:00,87.7,73.5,30.08,ESE,110,3.0,5.0,63,0.00,,,0.00,Wunderground v.1.15,2013-06-22 14:28:00,
2013-06-22 10:29:00,87.7,73.5,30.08,ESE,104,3.0,5.0,63,0.00,,,0.00,Wunderground v.1.15,2013-06-22 14:29:00,
2013-06-22 10:30:00,87.7,73.1,30.08,SE,134,3.0,3.0,62,0.00,,,0.00,Wunderground v.1.15,2013-06-22 14:30:00,
2013-06-22 10:35:00,87.6,72.5,30.08,SSE,152,3.0,9.0,61,0.00,,,0.00,Wunderground v.1.15,2013-06-22 14:35:00,
2013-06-22 10:39:00,87.5,72.9,30.08,SE,127,3.0,9.0,62,0.00,,,0.00,Wunderground v.1.15,2013-06-22 14:39:00,
2013-06-22 10:40:00,87.5,72.9,30.08,SSE,160,3.0,3.0,62,0.00,,,0.00,Wunderground v.1.15,2013-06-22 14:40:00,
2013-06-22 10:41:00,87.5,72.4,30.07,NE,54,3.0,9.0,61,0.00,,,0.00,Wunderground v.1.15,2013-06-22 14:41:00,
2013-06-22 10:42:00,87.4,72.3,30.07,ESE,102,3.0,9.0,61,0.00,,,0.00,Wunderground v.1.15,2013-06-22 14:42:00,
2013-06-22 10:46:00,87.6,73.4,30.07,ENE,75,3.0,9.0,63,0.00,,,0.00,Wunderground v.1.15,2013-06-22 14:46:00,
2013-06-22 10:47:00,87.7,73.5,30.08,ESE,107,3.0,9.0,63,0.00,,,0.00,Wunderground v.1.15,2013-06-22 14:47:00,
2013-06-22 10:50:00,87.7,73.1,30.08,ENE,77,3.0,9.0,62,0.00,,,0.00,Wunderground v.1.15,2013-06-22 14:50:00,
2013-06-22 10:52:00,87.8,73.2,30.07,NE,45,3.0,9.0,62,0.00,,,0.00,Wunderground v.1.15,2013-06-22 14:52:00,
2013-06-22 10:54:00,88.0,72.9,30.08,NNW,338,3.0,9.0,61,0.00,,,0.00,Wunderground v.1.15,2013-06-22 14:54:00,
2013-06-22 10:55:00,88.1,72.5,30.08,East,101,3.0,9.0,60,0.00,,,0.00,Wunderground v.1.15,2013-06-22 14:55:00,
2013-06-22 10:57:00,88.4,72.7,30.08,ENE,73,3.0,9.0,60,0.00,,,0.00,Wunderground v.1.15,2013-06-22 14:57:00,
2013-06-22 11:02:00,88.4,70.7,30.08,SE,141,4.0,4.0,56,0.00,,,0.00,Wunderground v.1.15,2013-06-22 15:02:00,
2013-06-22 11:04:00,88.8,72.1,30.08,South,176,3.0,6.0,58,0.00,,,0.00,Wunderground v.1.15,2013-06-22 15:04:00,
2013-06-22 11:05:00,88.9,72.7,30.08,SE,136,3.0,6.0,59,0.00,,,0.00,Wunderground v.1.15,2013-06-22 15:05:00,
2013-06-22 11:06:00,89.1,72.4,30.08,ESE,111,3.0,6.0,58,0.00,,,0.00,Wunderground v.1.15,2013-06-22 15:06:00,